EST,Max TemperatureF,Mean TemperatureF,Min TemperatureF,Max Dew PointF,MeanDew PointF,Min DewpointF,Max Humidity, Mean Humidity, Min Humidity, Max Sea Level PressureIn, Mean Sea Level PressureIn, Min Sea Level PressureIn, Max VisibilityMiles, Mean VisibilityMiles, Min VisibilityMiles, Max Wind SpeedMPH, Mean Wind SpeedMPH, Max Gust SpeedMPH,PrecipitationIn, CloudCover, Events, WindDirDegrees
2013-2-1,15,14,12,10,6,1,81,71,59,30.20,30.11,29.93,10,5,1,16,11,23,0.00,8,Snow,286
2013-2-2,20,15,12,11,7,0,82,71,47,30.12,30.03,29.99,10,6,1,10,6,16,0.00,8,Snow,356
2013-2-3,19,16,15,11,8,4,83,68,54,29.99,29.92,29.86,10,6,1,13,6,20,0.00,8,Snow,301
2013-2-4,20,12,3,12,6,-2,84,71,54,29.98,29.95,29.91,10,8,2,9,4,,0.00,6,Snow,56
2013-2-5,30,16,2,27,12,-3,86,74,55,30.00,29.84,29.73,10,9,0,21,5,29,0.00,6,Snow,294
2013-2-6,30,22,15,27,18,11,88,72,53,30.23,30.16,30.02,10,9,2,12,5,16,0.00,8,Snow,171
2013-2-7,31,30,30,28,26,22,88,84,72,30.15,30.05,29.96,10,3,0,12,7,16,0.00,8,Snow,108
2013-2-8,30,18,7,27,19,3,88,79,69,30.38,30.20,29.96,10,8,1,14,8,22,0.03,6,Snow,14
2013-2-9,31,15,-1,22,11,-8,87,76,57,30.39,30.30,30.16,10,10,7,13,3,,0.00,1,,152
2013-2-10,46,31,20,40,25,15,89,80,67,30.15,29.85,29.46,10,8,2,18,9,28,0.26,6,Rain-Snow,132
2013-2-11,45,38,30,41,30,21,88,78,68,29.85,29.55,29.40,10,9,1,25,19,36,0.01,8,Snow,246
2013-2-12,30,28,25,23,20,17,75,69,58,30.01,29.94,29.86,10,10,7,16,11,23,0.00,8,Snow,269
2013-2-13,35,32,30,31,29,23,86,82,75,29.86,29.74,29.69,10,6,4,15,9,18,0.00,7,,214
2013-2-14,37,32,26,34,30,20,90,86,73,29.92,29.68,29.56,10,4,0,23,7,30,0.05,8,Rain-Snow,239
2013-2-15,26,23,20,19,13,10,81,67,59,30.13,30.06,29.92,10,9,1,13,9,22,0.00,8,Snow,329
2013-2-16,21,12,2,17,10,-2,85,80,55,30.13,30.07,30.03,10,5,0,15,5,21,0.00,7,Snow,348
2013-2-17,22,11,0,14,6,-4,85,75,59,30.19,30.14,30.06,10,10,5,10,2,,0.00,6,Snow,156
2013-2-18,43,32,20,39,20,10,88,61,52,30.06,29.75,29.38,10,10,4,23,11,36,0.18,4,Rain,153
2013-2-19,42,29,16,39,17,8,87,80,66,29.98,29.72,29.29,7,2,0,21,16,29,0.00,8,Rain-Snow,300
2013-2-20,22,18,15,15,12,7,75,71,66,30.31,30.18,29.98,10,5,2,20,14,30,0.00,8,Snow,342
2013-2-21,25,22,20,18,15,10,79,74,66,30.38,30.31,30.18,10,10,10,17,8,24,0.00,6,,43
2013-2-22,32,24,19,28,20,12,86,81,69,30.19,29.94,29.79,10,7,0,20,12,26,0.00,8,Snow,112
2013-2-23,32,31,30,28,24,22,85,78,71,29.87,29.82,29.78,10,7,1,14,10,20,0.00,8,Snow,259
2013-2-24,35,26,17,27,24,14,89,78,62,30.14,30.01,29.85,10,9,0,12,7,16,0.00,6,Fog-Snow,311
2013-2-25,37,28,18,28,23,15,89,76,60,30.18,30.14,30.08,10,10,0,8,2,,0.00,6,Fog,161
2013-2-26,40,32,23,30,23,17,90,71,50,30.12,29.86,29.62,10,8,1,22,9,30,0.00,3,Snow,68
2013-2-27,37,34,32,32,31,28,93,88,82,29.68,29.60,29.55,10,5,1,12,8,18,0.12,8,Rain-Snow,23
2013-2-28,35,32,30,32,27,20,89,78,67,30.06,29.87,29.68,10,10,7,20,9,29,0.01,8,Snow,11